Location: Gro�sch�nbrunn
(49.5760°N, 11.8868°E)
Time: 07:59:04
(UTC+00:00)

X-37B - Visible Passes

Search period start: 26 November 2020 00:00
Search period end: 06 December 2020 00:00
Orbit: 384 x 389 km, 45.0° (Epoch: 12 November)

Date Brightness Start Highest point End Pass type
(mag) Time Alt. Az. Time Alt. Az. Time Alt. Az.
28 Nov 2.8 17:10:48 10° SSW 17:12:32 15° SSE 17:12:32 15° SSE visible
29 Nov 3.3 16:14:12 10° SSE 16:14:26 10° SSE 16:14:39 10° SE visible
29 Nov 3.0 17:47:37 10° SW 17:48:55 19° SSW 17:48:55 19° SSW visible
30 Nov 2.4 16:49:29 10° SSW 16:51:57 21° SSE 16:52:59 18° SE visible
30 Nov 4.1 18:25:11 10° WSW 18:25:15 10° WSW 18:25:15 10° WSW visible
01 Dec 3.0 15:51:40 10° SSW 15:53:36 15° SSE 15:55:32 10° ESE visible
01 Dec 2.0 17:26:46 10° WSW 17:29:18 31° S 17:29:18 31° S visible
02 Dec 2.2 16:28:29 10° SW 16:31:14 27° SSE 16:33:20 14° ESE visible
02 Dec 3.4 18:04:32 10° WSW 18:05:36 18° WSW 18:05:36 18° WSW visible
03 Dec 1.7 17:06:03 10° WSW 17:09:00 35° S 17:09:39 31° SSE visible
04 Dec 2.0 16:07:38 10° WSW 16:10:32 32° S 16:13:25 10° ESE visible
04 Dec 2.5 17:43:55 10° WSW 17:46:00 27° SW 17:46:00 27° SW visible
05 Dec 1.9 16:45:24 10° WSW 16:48:20 35° S 16:50:07 19° SE visible
05 Dec 4.0 18:22:06 10° WSW 18:22:24 11° WSW 18:22:24 11° WSW visible
